Other Public Products
Issued by NWS Grand Forks, ND

Home | Current Version | Previous Version | Graphics & Text | Print | Product List | Glossary On
Versions: 1 2 3 4 5 6 7 8 9 10 11 12 13 14 15 16 17 18 19 20 21 22 23 24 25 26 27 28 29 30 31 32 33 34 35 36 37 38 39 40 41 42 43 44 45 46 47 48 49 50
000
FPUS83 KFGF 260210
OPUFGF
PRAIRIE TO PINES WEATHER ROUNDUP
NATIONAL WEATHER SERVICE EASTERN NORTH DAKOTA/GRAND FORKS ND
900 PM CDT FRI JUL 25 2014

 **SATELLITE DATA USED TO AUGMENT SKY COVER AT AUTOMATED STATIONS**
 *****  WEATHER ACROSS EASTERN NORTH DAKOTA  *****

CITY           SKY/WX    TMP DP  RH WIND       PRES   REMARKS
GRAND FORKS    CLEAR     69  61  75 W6        29.75R
GRAND FORKS AF CLEAR     71  59  66 W6        29.77R
GRAND CITY NWS   N/A     72 N/A N/A W2          N/A
BUXTON         NOT AVBL
DEVILS LAKE    CLEAR     72  55  56 W3        29.77S
FARGO          CLEAR     72  58  61 W5        29.76S
WAHPETON ARPT  PTCLDY    73  64  73 CALM      29.77S
$$

 *****  WEATHER ACROSS CENTRAL AND WESTERN NORTH DAKOTA  *****

CITY           SKY/WX    TMP DP  RH WIND       PRES   REMARKS
JAMESTOWN      CLEAR     70  57  63 NW3       29.80S
BISMARCK       CLEAR     73  55  53 SE6       29.79F
MINOT          CLEAR     72  54  53 SE7       29.74F
MINOT AFB      CLEAR     73  61  66 S2        29.74S
GARRISON         N/A     70  61  73 E6        29.76S
WILLISTON      CLEAR     79  41  25 W6        29.74S
DICKINSON      CLEAR     72  59  63 S8        29.78F
HETTINGER      CLEAR     73  54  51 S7        29.84S
$$

 *****  OTHER OBSERVATIONS NORTHEAST NORTH DAKOTA  *****

CITY           SKY/WX    TMP DP  RH WIND       PRES   REMARKS
WALHALLA         N/A     72  55  56 SW3         N/A
LANGDON        FAIR      66  57  72 W6        29.77F
CAVALIER       FAIR      72  55  56 W7        29.74S
GRAFTON        FAIR      73  55  53 NW10      29.75R
CANDO          FAIR      68  59  73 S3        29.78F
FORT TOTTEN      N/A     67  56  67 CALM      29.95S
ROLLA          FAIR      66  59  77 S7        29.78S
RUGBY          FAIR      72  59  64 S6        29.76F
 ***** THE ABOVE OBSERVATIONS ARE NON NWS ARE NOT QUALITY
        CONTROLLED AND MAY MIS-REPORT RAIN FOR SNOW...
$$

 *****  OTHER OBSERVATIONS SOUTHEAST NORTH DAKOTA *****

CITY           SKY/WX    TMP DP  RH WIND       PRES   REMARKS
COOPERSTOWN    NOT AVBL
VALLEY CITY    FAIR      68  59  73 NW3       29.81R
OAKES          NOT AVBL
GWINNER        CLEAR     72  64  78 NW7       29.81R
SHEYENNE NWR     N/A     74  58  57 NW2       29.95
BUFFALO        NOT AVBL
WYNDMERE       NOT AVBL
 ***** THE ABOVE OBSERVATIONS ARE NON NWS ARE NOT QUALITY
       CONTROLLED AND MAY MIS-REPORT RAIN FOR SNOW...
$$

  *****  WEATHER ACROSS NORTHERN MINNESOTA  *****

CITY           SKY/WX    TMP DP  RH WIND       PRES   REMARKS
FLAG ISLAND    PTCLDY    73  66  78 SW6       29.69R
WARROAD        CLEAR     72  59  64 W7        29.73R
ROSEAU         CLEAR     72  57  60 W5        29.72S
HALLOCK        CLEAR     72  57  60 W9        29.73R
THF RVR FALLS  CLEAR     70  57  64 W6        29.75S
HALSTAD          N/A     67  57  69 NW8         N/A
FOSSTON        CLEAR     70  57  64 NW6       29.77R
BAUDETTE       MOCLDY    72  66  81 VRB3      29.72R
WASKISH        CLEAR     73  68  83 CALM      29.72F
CROOKSTON      CLEAR     70  63  78 W5        29.76R
$$
  *****  WEATHER ACROSS CENTRAL AND WEST MINNESOTA  *****

CITY           SKY/WX    TMP DP  RH WIND       PRES   REMARKS
BEMIDJI        PTCLDY    73  67  81 SW6       29.75S
PARK RAPIDS    MOCLDY    72  68  87 W6        29.77R
WADENA         CLEAR     72  66  83 CALM      29.78R
DETROIT LAKES  CLEAR     73  68  83 CALM      29.79S
MOORHEAD       CLEAR     70  61  73 NW7       29.77S
FERGUS FALLS   CLEAR     72  68  88 CALM      29.76F
ELBOW LAKE     MOCLDY    71  69  94 W3        29.78R
MORRIS MN      CLEAR     73  70  88 CALM      29.77S
STAPLES        CLEAR     72  66  83 CALM      29.78R
WHEATON        NOT AVBL
$$
  *****  WEATHER ELSEWHERE ACROSS MINNESOTA  *****

CITY           SKY/WX    TMP DP  RH WIND       PRES   REMARKS
DULUTH         CLOUDY    69  64  84 S6        29.77S
INTRNTL FALLS  MOCLDY    70  65  84 CALM      29.73R
ELY            CLOUDY    68  64  88 CALM      29.76S
CLOQUET        CLOUDY    66  63  88 CALM      29.78R
BRAINERD       CLOUDY    73  68  84 S3        29.77R
HIBBING        CLOUDY    71  65  81 SE5       29.76F
ALEXANDRIA     CLEAR     72  68  87 W3        29.80S
SAINT CLOUD    CLOUDY    78  71  79 CALM      29.76R
MINNEAPOLIS    CLOUDY    78  69  73 SE10      29.76S
$$

  *****  WEATHER ACROSS SOUTH DAKOTA  *****

CITY           SKY/WX    TMP DP  RH WIND       PRES   REMARKS
SIOUX FALLS    MOCLDY    80  70  71 CALM      29.78R
BROOKINGS      NOT AVBL
WATERTOWN      CLEAR     72  68  87 E3        29.81S
HURON          CLEAR     74  67  78 NE5       29.81R
SISSETON         N/A     72  70  93 S3        29.77S
ABERDEEN       CLEAR     72  60  66 NE3       29.81R
MITCHELL       CLEAR     77  68  73 N8        29.80R
PIERRE         CLEAR     75  57  53 NE6       29.80S
MOBRIDGE       CLEAR     72  59  63 NE5       29.80R
RAPID CITY     PTCLDY    73  57  57 SE8       29.87R
$$

  *****  SOME WEATHER IN NEARBY STATES *****

CITY           SKY/WX    TMP DP  RH WIND       PRES   REMARKS
GLASGOW MT     CLEAR     72  47  40 N24G30    29.78R
GREAT FALLS MT CLEAR     74  31  20 W23G35    29.95R
CHEYENNE WY    CLOUDY    72  52  49 SW14G32   30.13F
SCOTTSBLUFF NE MOCLDY    74  64  71 SE12      29.95R
OMAHA NE       MOCLDY    85  76  74 E6        29.73R HX  94
DES MOINES IA  PTCLDY    79  71  76 SE7       29.76F
DAVENPORT IA   CLOUDY    69  64  84 SE12      29.88F
CHICAGO IL     CLOUDY    72  57  59 SW9       29.93R
EAU CLAIRE WI  CLOUDY    73  66  78 S10       29.80S
LA CROSSE WI   CLOUDY    73  64  73 SE12      29.82S
$$

  *****  SOME NATIONAL WEATHER *****

CITY           SKY/WX    TMP DP  RH WIND       PRES   REMARKS
LA GUARDIA NY  CLEAR     75  58  55 SW12      30.01R
RALEIGH NC     PTCLDY    74  67  78 SE3       30.04S
ATLANTA GA     PTCLDY    81  65  58 NW5       30.01R
NEW ORLEANS LA MOCLDY    81  76  84 S6        30.00R
OKLAHOMA CITY  PTCLDY    86  60  41 S8        29.87R
ALBUQUERQUE NM PTCLDY    93  42  17 S8        30.06S
SALT LAKE CITY PTCLDY    90  40  17 NW8       29.93S
LOS ANGELES CA PTSUNNY   71  63  75 W7        29.88R
BOISE ID       SUNNY     83  20   9 NW14      29.97F
SEATTLE WA     MOSUNNY   72  51  47 W6        30.10F
$$

*** WEATHER ACROSS MANITOBA...SASKATCHEWAN AND ONTARIO ***
                ***ONTARIO***

CITY           SKY/WX    TMP DP  RH WIND       PRES   REMARKS
GERALDTON      MOCLDY    68  57  68 W7        29.74R
THUNDER BAY    MOCLDY    61  61 100 NE5       29.75S
SIOUX LOOKOUT  MOCLDY    70  63  78 SW3       29.71F
TORONTO        PTCLDY    68  55  64 SW15      29.96R
BIG TROUT LK   PTCLDY    57  50  77 NE6       29.80R
PICKLE LAKE    MOCLDY    73  52  46 SE3       29.70S
DRYDEN         CLEAR     70  64  83 S7        29.70F
KENORA         LGT RAIN  72  66  83 W6        29.71S
$$
                *** MANITOBA***

CITY           SKY/WX    TMP DP  RH WIND       PRES   REMARKS
BRANDON        PTCLDY    68  59  73 SW6       29.72S
DAUPHIN        CLEAR     70  54  56 SW3       29.67R
ISLAND LAKE    MOCLDY    70  52  52 E7        29.72S
PILOT MOUND      N/A     64  55  72 SW5         N/A
THE PAS        LGT RAIN  64  63  94 SE8       29.66R
THOMPSON       PTCLDY    70  52  52 E12       29.76S
WINNIPEG       PTCLDY    68  54  60 W8        29.70R
LYNN LAKE      CLEAR     70  50  49 E14G21    29.79R
CHURCHILL      CLOUDY    48  45  87 NE12      30.00R
GILLAM         MOCLDY    54  48  82 E8        29.89R
$$
                ***SASKATCHEWAN***

CITY           SKY/WX    TMP DP  RH WIND       PRES   REMARKS
ESTEVAN        MOCLDY    66  57  72 S6        29.72S
KINDERSLEY     MOCLDY    59  48  67 NW22G31   29.66R
LLOYDMINSTER   SHOWER    55  54  94 NE10      29.74R
PRINCE ALBERT  MOCLDY    59  55  88 E9        29.56S
REGINA         LGT RAIN  59  54  82 S14G21    29.68F



USA.gov is the U.S. government's official web portal to all federal, state and local government web resources and services.